Time,TemperatureF,DewpointF,PressureIn,WindDirection,WindDirectionDegrees,WindSpeedMPH,WindSpeedGustMPH,Humidity,HourlyPrecipIn,Conditions,Clouds,dailyrainin,SoftwareType,DateUTC
2013-04-30 00:02:00,65.0,57.0,29.70,South,180,2.0,6.0,75,0.00,,,0.00,,2013-04-30 05:02:00,
2013-04-30 00:12:00,65.0,57.0,29.70,South,180,2.0,6.0,75,0.00,,,0.00,,2013-04-30 05:12:00,
2013-04-30 00:22:00,64.0,56.0,29.70,SE,134,1.0,7.0,76,0.00,,,0.00,,2013-04-30 05:22:00,
2013-04-30 00:31:00,64.0,56.0,29.69,SE,134,3.0,8.0,76,0.00,,,0.00,,2013-04-30 05:31:00,
2013-04-30 00:42:00,64.0,56.0,29.69,SE,134,3.0,8.0,76,0.00,,,0.00,,2013-04-30 05:42:00,
2013-04-30 00:51:00,64.0,56.0,29.68,SE,134,2.0,10.0,76,0.00,,,0.00,,2013-04-30 05:51:00,
2013-04-30 01:02:00,64.0,57.0,29.69,SSE,155,0.0,9.0,77,0.00,,,0.00,,2013-04-30 06:02:00,
2013-04-30 01:12:00,64.0,57.0,29.69,SSE,155,0.0,9.0,77,0.00,,,0.00,,2013-04-30 06:12:00,
2013-04-30 01:21:00,63.0,56.0,29.68,SE,134,2.0,7.0,78,0.00,,,0.00,,2013-04-30 06:21:00,
2013-04-30 01:32:00,63.0,56.0,29.68,SE,142,2.0,7.0,78,0.00,,,0.00,,2013-04-30 06:32:00,
2013-04-30 01:41:00,63.0,56.0,29.68,SE,142,2.0,7.0,78,0.00,,,0.00,,2013-04-30 06:41:00,
2013-04-30 01:52:00,62.0,55.0,29.68,ESE,103,4.0,7.0,79,0.00,,,0.00,,2013-04-30 06:52:00,
2013-04-30 02:01:00,63.0,56.0,29.69,SE,138,1.0,11.0,79,0.00,,,0.00,,2013-04-30 07:01:00,
2013-04-30 02:11:00,63.0,56.0,29.69,SE,138,1.0,11.0,79,0.00,,,0.00,,2013-04-30 07:11:00,
2013-04-30 02:21:00,63.0,56.0,29.68,SE,142,1.0,7.0,79,0.00,,,0.00,,2013-04-30 07:21:00,
2013-04-30 02:31:00,62.0,56.0,29.68,SE,140,1.0,8.0,80,0.00,,,0.00,,2013-04-30 07:31:00,
2013-04-30 02:42:00,62.0,56.0,29.68,SE,140,1.0,8.0,80,0.00,,,0.00,,2013-04-30 07:42:00,
2013-04-30 02:52:00,61.0,55.0,29.67,SE,142,2.0,10.0,82,0.00,,,0.00,,2013-04-30 07:52:00,
2013-04-30 03:02:00,61.0,56.0,29.68,SE,144,3.0,5.0,83,0.00,,,0.00,,2013-04-30 08:02:00,
2013-04-30 03:11:00,61.0,56.0,29.68,SE,144,3.0,5.0,83,0.00,,,0.00,,2013-04-30 08:11:00,
2013-04-30 03:21:00,61.0,56.0,29.68,SSE,149,1.0,6.0,84,0.00,,,0.00,,2013-04-30 08:21:00,
2013-04-30 03:32:00,61.0,56.0,29.69,SE,133,1.0,6.0,84,0.00,,,0.00,,2013-04-30 08:32:00,
2013-04-30 03:42:00,61.0,56.0,29.69,SE,133,1.0,6.0,84,0.00,,,0.00,,2013-04-30 08:42:00,
2013-04-30 03:52:00,61.0,56.0,29.69,SE,146,1.0,5.0,84,0.00,,,0.00,,2013-04-30 08:52:00,
2013-04-30 04:01:00,61.0,56.0,29.70,SSE,150,2.0,7.0,85,0.00,,,0.00,,2013-04-30 09:01:00,
2013-04-30 04:11:00,61.0,56.0,29.70,SSE,150,2.0,7.0,85,0.00,,,0.00,,2013-04-30 09:11:00,
2013-04-30 04:22:00,61.0,56.0,29.70,SSE,147,1.0,7.0,85,0.00,,,0.00,,2013-04-30 09:22:00,
2013-04-30 04:33:00,61.0,57.0,29.70,SE,145,3.0,8.0,86,0.00,,,0.00,,2013-04-30 09:33:00,
2013-04-30 04:43:00,61.0,57.0,29.70,SE,145,3.0,8.0,86,0.00,,,0.00,,2013-04-30 09:43:00,
2013-04-30 04:52:00,61.0,57.0,29.70,SSE,153,1.0,5.0,86,0.00,,,0.00,,2013-04-30 09:52:00,
2013-04-30 05:03:00,62.0,58.0,29.69,ESE,118,1.0,5.0,87,0.00,,,0.00,,2013-04-30 10:03:00,
2013-04-30 05:11:00,62.0,58.0,29.69,ESE,118,1.0,5.0,87,0.00,,,0.00,,2013-04-30 10:11:00,
2013-04-30 05:22:00,62.0,58.0,29.70,SE,135,1.0,7.0,86,0.00,,,0.00,,2013-04-30 10:22:00,
2013-04-30 05:32:00,62.0,58.0,29.70,SSE,166,1.0,6.0,86,0.00,,,0.00,,2013-04-30 10:32:00,
2013-04-30 05:41:00,62.0,58.0,29.70,SSE,166,1.0,6.0,86,0.00,,,0.00,,2013-04-30 10:41:00,
2013-04-30 05:52:00,62.0,58.0,29.71,SE,130,2.0,10.0,86,0.00,,,0.00,,2013-04-30 10:52:00,
2013-04-30 06:02:00,62.0,58.0,29.72,SE,124,2.0,8.0,86,0.00,,,0.00,,2013-04-30 11:02:00,
2013-04-30 06:11:00,62.0,58.0,29.72,SE,124,2.0,8.0,86,0.00,,,0.00,,2013-04-30 11:11:00,
2013-04-30 06:21:00,62.0,58.0,29.72,SE,138,3.0,8.0,86,0.00,,,0.00,,2013-04-30 11:21:00,
2013-04-30 06:31:00,62.0,58.0,29.72,SE,141,3.0,8.0,87,0.00,,,0.00,,2013-04-30 11:31:00,
2013-04-30 06:42:00,62.0,58.0,29.72,SE,141,3.0,8.0,87,0.00,,,0.00,,2013-04-30 11:42:00,
2013-04-30 06:51:00,61.0,57.0,29.72,SE,134,2.0,8.0,87,0.00,,,0.00,,2013-04-30 11:51:00,
2013-04-30 07:01:00,62.0,58.0,29.73,ESE,121,4.0,8.0,88,0.00,,,0.00,,2013-04-30 12:01:00,
2013-04-30 07:11:00,62.0,58.0,29.73,ESE,121,4.0,8.0,88,0.00,,,0.00,,2013-04-30 12:11:00,
2013-04-30 07:21:00,62.0,58.0,29.73,SE,141,4.0,8.0,87,0.00,,,0.00,,2013-04-30 12:21:00,
2013-04-30 07:31:00,63.0,59.0,29.73,SE,142,2.0,11.0,87,0.00,,,0.00,,2013-04-30 12:31:00,
2013-04-30 07:41:00,63.0,59.0,29.73,SE,142,2.0,11.0,87,0.00,,,0.00,,2013-04-30 12:41:00,
2013-04-30 07:51:00,63.0,59.0,29.73,SE,132,3.0,8.0,86,0.00,,,0.00,,2013-04-30 12:51:00,
2013-04-30 08:01:00,64.0,59.0,29.74,SE,145,1.0,8.0,85,0.00,,,0.00,,2013-04-30 13:01:00,
2013-04-30 08:11:00,64.0,59.0,29.74,SE,145,1.0,8.0,85,0.00,,,0.00,,2013-04-30 13:11:00,
2013-04-30 08:21:00,65.0,60.0,29.73,ESE,119,2.0,9.0,83,0.00,,,0.00,,2013-04-30 13:21:00,
2013-04-30 08:31:00,66.0,60.0,29.73,SE,142,2.0,11.0,81,0.00,,,0.00,,2013-04-30 13:31:00,
2013-04-30 08:41:00,66.0,60.0,29.73,SE,142,2.0,11.0,81,0.00,,,0.00,,2013-04-30 13:41:00,
2013-04-30 08:51:00,67.0,60.0,29.72,SE,132,3.0,11.0,79,0.00,,,0.00,,2013-04-30 13:51:00,
2013-04-30 09:02:00,67.0,60.0,29.72,ESE,113,3.0,11.0,77,0.00,,,0.00,,2013-04-30 14:02:00,
2013-04-30 09:11:00,67.0,60.0,29.72,ESE,113,3.0,11.0,77,0.00,,,0.00,,2013-04-30 14:11:00,
2013-04-30 09:21:00,68.0,60.0,29.72,ESE,117,5.0,10.0,75,0.00,,,0.00,,2013-04-30 14:21:00,
2013-04-30 09:31:00,71.0,60.0,29.72,SW,216,5.0,10.0,68,0.00,,,0.00,,2013-04-30 14:31:00,
2013-04-30 09:41:00,71.0,60.0,29.72,SW,216,5.0,10.0,68,0.00,,,0.00,,2013-04-30 14:41:00,
2013-04-30 09:52:00,73.0,60.0,29.72,ESE,108,3.0,17.0,63,0.00,,,0.00,,2013-04-30 14:52:00,
2013-04-30 10:01:00,73.0,59.0,29.72,NNW,336,4.0,14.0,61,0.00,,,0.00,,2013-04-30 15:01:00,
2013-04-30 10:11:00,73.0,59.0,29.72,NNW,336,4.0,14.0,61,0.00,,,0.00,,2013-04-30 15:11:00,
2013-04-30 10:21:00,74.0,59.0,29.72,WSW,257,3.0,15.0,60,0.00,,,0.00,,2013-04-30 15:21:00,
2013-04-30 10:32:00,75.0,60.0,29.72,WNW,298,2.0,8.0,59,0.00,,,0.00,,2013-04-30 15:32:00,
2013-04-30 10:42:00,75.0,60.0,29.72,WNW,298,2.0,8.0,59,0.00,,,0.00,,2013-04-30 15:42:00,
2013-04-30 10:52:00,76.0,57.0,29.73,WNW,285,2.0,11.0,52,0.00,,,0.00,,2013-04-30 15:52:00,
2013-04-30 11:02:00,78.0,57.0,29.72,ESE,111,4.0,9.0,48,0.00,,,0.00,,2013-04-30 16:02:00,
2013-04-30 11:12:00,78.0,57.0,29.72,ESE,111,4.0,9.0,48,0.00,,,0.00,,2013-04-30 16:12:00,
2013-04-30 11:23:00,79.0,55.0,29.73,SE,136,4.0,12.0,43,0.00,,,0.00,,2013-04-30 16:23:00,
2013-04-30 11:33:00,80.0,55.0,29.73,NE,41,4.0,17.0,43,0.00,,,0.00,,2013-04-30 16:33:00,
2013-04-30 11:42:00,80.0,55.0,29.73,NE,41,4.0,17.0,43,0.00,,,0.00,,2013-04-30 16:42:00,
2013-04-30 11:52:00,80.0,53.0,29.73,East,82,4.0,12.0,40,0.00,,,0.00,,2013-04-30 16:52:00,
2013-04-30 12:02:00,80.0,54.0,29.74,West,269,3.0,11.0,41,0.00,,,0.00,,2013-04-30 17:02:00,
2013-04-30 12:12:00,80.0,54.0,29.74,West,269,3.0,11.0,41,0.00,,,0.00,,2013-04-30 17:12:00,
2013-04-30 12:22:00,82.0,56.0,29.74,WNW,291,4.0,10.0,41,0.00,,,0.00,,2013-04-30 17:22:00,
2013-04-30 12:32:00,82.0,55.0,29.73,ESE,113,3.0,9.0,40,0.00,,,0.00,,2013-04-30 17:32:00,
2013-04-30 12:42:00,82.0,55.0,29.73,ESE,113,3.0,9.0,40,0.00,,,0.00,,2013-04-30 17:42:00,
2013-04-30 12:52:00,83.0,55.0,29.73,SW,219,4.0,10.0,38,0.00,,,0.00,,2013-04-30 17:52:00,
2013-04-30 13:01:00,84.0,53.0,29.73,SSE,163,3.0,14.0,35,0.00,,,0.00,,2013-04-30 18:01:00,
2013-04-30 13:11:00,84.0,53.0,29.73,SSE,163,3.0,14.0,35,0.00,,,0.00,,2013-04-30 18:11:00,
2013-04-30 13:22:00,85.0,53.0,29.73,West,277,3.0,12.0,34,0.00,,,0.00,,2013-04-30 18:22:00,
2013-04-30 13:32:00,85.0,53.0,29.72,South,186,2.0,17.0,33,0.00,,,0.00,,2013-04-30 18:32:00,
2013-04-30 13:42:00,85.0,53.0,29.72,South,186,2.0,17.0,33,0.00,,,0.00,,2013-04-30 18:42:00,
2013-04-30 13:51:00,85.0,53.0,29.73,ESE,119,2.0,14.0,34,0.00,,,0.00,,2013-04-30 18:51:00,
2013-04-30 14:01:00,86.0,54.0,29.73,West,270,5.0,11.0,33,0.00,,,0.00,,2013-04-30 19:01:00,
2013-04-30 14:11:00,86.0,54.0,29.73,West,270,5.0,11.0,33,0.00,,,0.00,,2013-04-30 19:11:00,
2013-04-30 14:22:00,86.0,52.0,29.73,East,88,4.0,13.0,31,0.00,,,0.00,,2013-04-30 19:22:00,
2013-04-30 14:32:00,86.0,53.0,29.73,SW,219,3.0,10.0,32,0.00,,,0.00,,2013-04-30 19:32:00,
2013-04-30 14:42:00,86.0,53.0,29.73,SW,219,3.0,10.0,32,0.00,,,0.00,,2013-04-30 19:42:00,
2013-04-30 14:52:00,86.0,53.0,29.73,SE,126,5.0,12.0,32,0.00,,,0.00,,2013-04-30 19:52:00,
2013-04-30 15:02:00,87.0,52.0,29.73,WNW,293,6.0,14.0,30,0.00,,,0.00,,2013-04-30 20:02:00,
2013-04-30 15:11:00,87.0,52.0,29.73,WNW,293,6.0,14.0,30,0.00,,,0.00,,2013-04-30 20:11:00,
2013-04-30 15:21:00,86.0,53.0,29.73,SE,134,3.0,14.0,32,0.00,,,0.00,,2013-04-30 20:21:00,
2013-04-30 15:32:00,87.0,51.0,29.73,SE,134,4.0,13.0,29,0.00,,,0.00,,2013-04-30 20:32:00,
2013-04-30 15:42:00,87.0,51.0,29.73,SE,134,4.0,13.0,29,0.00,,,0.00,,2013-04-30 20:42:00,
2013-04-30 15:52:00,86.0,51.0,29.72,SE,126,6.0,14.0,30,0.00,,,0.00,,2013-04-30 20:52:00,
2013-04-30 16:02:00,86.0,53.0,29.72,WSW,254,3.0,11.0,32,0.00,,,0.00,,2013-04-30 21:02:00,
2013-04-30 16:11:00,86.0,53.0,29.72,WSW,254,3.0,11.0,32,0.00,,,0.00,,2013-04-30 21:11:00,
2013-04-30 16:22:00,87.0,53.0,29.72,SSE,150,2.0,10.0,31,0.00,,,0.00,,2013-04-30 21:22:00,
2013-04-30 16:32:00,86.0,52.0,29.72,SW,214,3.0,9.0,31,0.00,,,0.00,,2013-04-30 21:32:00,
2013-04-30 16:42:00,86.0,52.0,29.72,SW,214,3.0,9.0,31,0.00,,,0.00,,2013-04-30 21:42:00,
2013-04-30 16:52:00,87.0,54.0,29.72,NE,36,2.0,12.0,32,0.00,,,0.00,,2013-04-30 21:52:00,
2013-04-30 17:02:00,86.0,54.0,29.72,SE,140,5.0,11.0,33,0.00,,,0.00,,2013-04-30 22:02:00,
2013-04-30 17:12:00,86.0,54.0,29.72,SE,140,5.0,11.0,33,0.00,,,0.00,,2013-04-30 22:12:00,
2013-04-30 17:23:00,86.0,52.0,29.73,South,175,5.0,14.0,31,0.00,,,0.00,,2013-04-30 22:23:00,
2013-04-30 17:32:00,85.0,50.0,29.73,SE,126,3.0,16.0,30,0.00,,,0.00,,2013-04-30 22:32:00,
2013-04-30 17:41:00,85.0,50.0,29.73,SE,126,3.0,16.0,30,0.00,,,0.00,,2013-04-30 22:41:00,
2013-04-30 17:52:00,85.0,48.0,29.74,SSW,213,5.0,13.0,28,0.00,,,0.00,,2013-04-30 22:52:00,
2013-04-30 18:02:00,85.0,50.0,29.74,WSW,247,3.0,13.0,30,0.00,,,0.00,,2013-04-30 23:02:00,
2013-04-30 18:12:00,85.0,50.0,29.74,WSW,247,3.0,13.0,30,0.00,,,0.00,,2013-04-30 23:12:00,
2013-04-30 18:22:00,85.0,52.0,29.75,ESE,120,3.0,10.0,32,0.00,,,0.00,,2013-04-30 23:22:00,
2013-04-30 18:32:00,84.0,52.0,29.75,SE,136,2.0,7.0,33,0.00,,,0.00,,2013-04-30 23:32:00,
2013-04-30 18:42:00,84.0,52.0,29.75,SE,136,2.0,7.0,33,0.00,,,0.00,,2013-04-30 23:42:00,
2013-04-30 18:52:00,84.0,52.0,29.76,ESE,121,6.0,14.0,33,0.00,,,0.00,,2013-04-30 23:52:00,
2013-04-30 19:02:00,83.0,52.0,29.76,SE,135,3.0,7.0,35,0.00,,,0.00,,2013-05-01 00:02:00,
2013-04-30 19:11:00,83.0,52.0,29.76,SE,135,3.0,7.0,35,0.00,,,0.00,,2013-05-01 00:11:00,
2013-04-30 19:21:00,82.0,52.0,29.77,ESE,120,3.0,10.0,36,0.00,,,0.00,,2013-05-01 00:21:00,
2013-04-30 19:32:00,81.0,52.0,29.77,SE,137,5.0,12.0,36,0.00,,,0.00,,2013-05-01 00:32:00,
2013-04-30 19:42:00,81.0,52.0,29.77,SE,137,5.0,12.0,36,0.00,,,0.00,,2013-05-01 00:42:00,
2013-04-30 19:51:00,81.0,52.0,29.77,SE,124,3.0,12.0,36,0.00,,,0.00,,2013-05-01 00:51:00,
2013-04-30 20:01:00,80.0,52.0,29.78,SE,128,3.0,9.0,38,0.00,,,0.00,,2013-05-01 01:01:00,
2013-04-30 20:11:00,80.0,52.0,29.78,SE,128,3.0,9.0,38,0.00,,,0.00,,2013-05-01 01:11:00,
2013-04-30 20:21:00,78.0,52.0,29.78,ESE,110,3.0,8.0,41,0.00,,,0.00,,2013-05-01 01:21:00,
2013-04-30 20:32:00,77.0,53.0,29.79,SE,136,1.0,4.0,44,0.00,,,0.00,,2013-05-01 01:32:00,
2013-04-30 20:42:00,77.0,53.0,29.79,SE,136,1.0,4.0,44,0.00,,,0.00,,2013-05-01 01:42:00,
2013-04-30 20:52:00,76.0,55.0,29.80,SE,130,2.0,4.0,48,0.00,,,0.00,,2013-05-01 01:52:00,
2013-04-30 21:02:00,75.0,54.0,29.80,SE,133,1.0,7.0,48,0.00,,,0.00,,2013-05-01 02:02:00,
2013-04-30 21:11:00,75.0,54.0,29.80,SE,133,1.0,7.0,48,0.00,,,0.00,,2013-05-01 02:11:00,
2013-04-30 21:21:00,74.0,54.0,29.80,SE,130,3.0,8.0,49,0.00,,,0.00,,2013-05-01 02:21:00,
2013-04-30 21:32:00,74.0,53.0,29.81,ESE,111,2.0,5.0,48,0.00,,,0.00,,2013-05-01 02:32:00,
2013-04-30 21:42:00,74.0,53.0,29.81,ESE,111,2.0,5.0,48,0.00,,,0.00,,2013-05-01 02:42:00,
2013-04-30 21:52:00,74.0,54.0,29.82,SSE,158,1.0,8.0,49,0.00,,,0.00,,2013-05-01 02:52:00,
2013-04-30 22:01:00,73.0,53.0,29.82,SE,132,2.0,9.0,50,0.00,,,0.00,,2013-05-01 03:01:00,
2013-04-30 22:11:00,73.0,53.0,29.82,SE,132,2.0,9.0,50,0.00,,,0.00,,2013-05-01 03:11:00,
2013-04-30 22:21:00,73.0,54.0,29.83,SE,126,3.0,8.0,51,0.00,,,0.00,,2013-05-01 03:21:00,
2013-04-30 22:33:00,72.0,54.0,29.83,South,169,2.0,8.0,54,0.00,,,0.00,,2013-05-01 03:33:00,
2013-04-30 22:43:00,72.0,54.0,29.83,South,169,2.0,8.0,54,0.00,,,0.00,,2013-05-01 03:43:00,
2013-04-30 22:53:00,72.0,55.0,29.83,SE,145,3.0,9.0,56,0.00,,,0.00,,2013-05-01 03:53:00,
2013-04-30 23:03:00,72.0,56.0,29.83,SE,144,1.0,7.0,57,0.00,,,0.00,,2013-05-01 04:03:00,
2013-04-30 23:12:00,72.0,56.0,29.83,SE,144,1.0,7.0,57,0.00,,,0.00,,2013-05-01 04:12:00,
2013-04-30 23:22:00,72.0,56.0,29.84,SSE,161,2.0,11.0,57,0.00,,,0.00,,2013-05-01 04:22:00,
2013-04-30 23:32:00,71.0,55.0,29.85,East,82,3.0,6.0,57,0.00,,,0.00,,2013-05-01 04:32:00,
2013-04-30 23:43:00,71.0,55.0,29.85,East,82,3.0,6.0,57,0.00,,,0.00,,2013-05-01 04:43:00,
2013-04-30 23:52:00,71.0,55.0,29.85,SE,130,3.0,8.0,57,0.00,,,0.00,,2013-05-01 04:52:00,